GLO1454 SBGR-SBBR

Flight info

Callsign GLO1454
Flight time 1h 19m
Altitude 37000
Route ISMOB UZ26 AZOIC
Aircraft B38M/M-SDE1FGHILORVWXY/HB1

Departure

Time 2026-05-04 20:32
Airport São Paulo/Guarulhos–Governor André Franco Montoro International Airport (SBGR)

Arrival

Time 2026-05-04 21:52
Airport Presidente Juscelino Kubitschek International Airport (SBBR)
Time Latitude Longitude Altitude Speed Heading
2026-05-04 20:05 -23.42891 -46.48074 2431 ft 0 kts 79°
2026-05-04 20:21 -23.42894 -46.48087 2463 ft 4 kts 88°
2026-05-04 20:21 -23.42888 -46.48114 2458 ft 4 kts 127°
2026-05-04 20:21 -23.42861 -46.48128 2460 ft 0 kts 175°
2026-05-04 20:29 -23.42898 -46.48128 2464 ft 10 kts 187°
2026-05-04 20:29 -23.42984 -46.48134 2463 ft 15 kts 175°
2026-05-04 20:30 -23.43084 -46.48125 2466 ft 14 kts 170°
2026-05-04 20:30 -23.43176 -46.48120 2465 ft 13 kts 206°
2026-05-04 20:30 -23.43221 -46.48204 2468 ft 13 kts 253°
2026-05-04 20:30 -23.43253 -46.48300 2467 ft 14 kts 238°
2026-05-04 20:31 -23.43343 -46.48344 2468 ft 16 kts 173°
2026-05-04 20:31 -23.43407 -46.48263 2462 ft 17 kts 78°
2026-05-04 20:31 -23.43349 -46.48049 2467 ft 61 kts 73°
2026-05-04 20:31 -23.43155 -46.47331 2460 ft 135 kts 73°
2026-05-04 20:32 -23.42810 -46.46157 2532 ft 185 kts 72°
2026-05-04 20:32 -23.42461 -46.44709 2798 ft 217 kts 75°
2026-05-04 20:32 -23.42049 -46.43119 3515 ft 215 kts 66°
2026-05-04 20:32 -23.41150 -46.41836 4151 ft 214 kts 38°
2026-05-04 20:33 -23.39825 -46.41102 4417 ft 221 kts 14°
2026-05-04 20:33 -23.38264 -46.40728 4629 ft 229 kts 18°
2026-05-04 20:33 -23.37005 -46.39776 5339 ft 221 kts 45°
2026-05-04 20:33 -23.35929 -46.38477 5462 ft 240 kts 45°
2026-05-04 20:34 -23.34713 -46.37138 5607 ft 257 kts 42°
2026-05-04 20:34 -23.33434 -46.35762 6062 ft 260 kts 47°
2026-05-04 20:34 -23.32247 -46.34260 6385 ft 268 kts 46°
2026-05-04 20:34 -23.30961 -46.32722 6597 ft 280 kts 44°
2026-05-04 20:35 -23.29612 -46.31167 6936 ft 282 kts 44°
2026-05-04 20:35 -23.28249 -46.29622 7308 ft 285 kts 43°
2026-05-04 20:35 -23.26879 -46.28087 7722 ft 287 kts 43°
2026-05-04 20:35 -23.25477 -46.26528 8102 ft 289 kts 43°
2026-05-04 20:36 -23.24066 -46.24965 8502 ft 291 kts 43°
2026-05-04 20:36 -23.22640 -46.23391 8887 ft 293 kts 43°
2026-05-04 20:36 -23.21206 -46.21811 9279 ft 295 kts 43°
2026-05-04 20:36 -23.19771 -46.20229 9662 ft 297 kts 43°
2026-05-04 20:37 -23.18307 -46.18616 10043 ft 299 kts 43°
2026-05-04 20:37 -23.16833 -46.16994 10285 ft 306 kts 43°
2026-05-04 20:37 -23.15302 -46.15309 10304 ft 320 kts 44°
2026-05-04 20:37 -23.13690 -46.13589 10297 ft 330 kts 37°
2026-05-04 20:38 -23.11698 -46.12411 10577 ft 325 kts 15°
2026-05-04 20:38 -23.09475 -46.12110 10745 ft 324 kts 353°
2026-05-04 20:38 -23.07301 -46.12702 10988 ft 322 kts 333°
2026-05-04 20:38 -23.05444 -46.14032 11207 ft 322 kts 317°
2026-05-04 20:39 -23.03770 -46.15655 11404 ft 324 kts 316°
2026-05-04 20:39 -23.02107 -46.17327 11660 ft 325 kts 315°
2026-05-04 20:39 -23.00463 -46.19015 11914 ft 327 kts 315°
2026-05-04 20:39 -22.98818 -46.20724 12176 ft 328 kts 314°
2026-05-04 20:40 -22.97169 -46.22450 12418 ft 330 kts 314°
2026-05-04 20:40 -22.95517 -46.24185 12666 ft 331 kts 314°
2026-05-04 20:40 -22.93860 -46.25929 12925 ft 333 kts 314°
2026-05-04 20:40 -22.92218 -46.27658 13183 ft 334 kts 314°
2026-05-04 20:41 -22.90538 -46.29454 13447 ft 335 kts 310°
2026-05-04 20:41 -22.89326 -46.31548 13704 ft 333 kts 294°
2026-05-04 20:41 -22.88297 -46.33807 13906 ft 336 kts 295°
2026-05-04 20:41 -22.87265 -46.36084 14152 ft 337 kts 294°
2026-05-04 20:42 -22.86235 -46.38374 14402 ft 337 kts 294°
2026-05-04 20:42 -22.85214 -46.40659 14649 ft 338 kts 294°
2026-05-04 20:42 -22.84190 -46.42952 14914 ft 338 kts 294°
2026-05-04 20:42 -22.83164 -46.45252 15146 ft 339 kts 294°
2026-05-04 20:43 -22.82139 -46.47551 15390 ft 339 kts 294°
2026-05-04 20:43 -22.81112 -46.49850 15621 ft 339 kts 294°
2026-05-04 20:43 -22.80083 -46.52157 15827 ft 340 kts 294°
2026-05-04 20:43 -22.79051 -46.54466 16035 ft 340 kts 294°
2026-05-04 20:44 -22.78018 -46.56779 16232 ft 341 kts 294°
2026-05-04 20:44 -22.76986 -46.59087 16434 ft 341 kts 294°
2026-05-04 20:44 -22.75949 -46.61404 16618 ft 341 kts 294°
2026-05-04 20:44 -22.74912 -46.63722 16797 ft 342 kts 294°
2026-05-04 20:45 -22.73874 -46.66041 16965 ft 342 kts 294°
2026-05-04 20:45 -22.72836 -46.68358 17121 ft 343 kts 294°
2026-05-04 20:45 -22.71793 -46.70686 17294 ft 343 kts 294°
2026-05-04 20:45 -22.70748 -46.73016 17462 ft 343 kts 294°
2026-05-04 20:46 -22.69718 -46.75312 17620 ft 344 kts 293°
2026-05-04 20:46 -22.68672 -46.77644 17759 ft 344 kts 293°
2026-05-04 20:46 -22.67625 -46.79976 17899 ft 345 kts 294°
2026-05-04 20:46 -22.66575 -46.82310 18040 ft 345 kts 294°
2026-05-04 20:47 -22.65524 -46.84640 18187 ft 345 kts 294°
2026-05-04 20:47 -22.64472 -46.86972 18310 ft 345 kts 294°
2026-05-04 20:47 -22.63411 -46.89322 18768 ft 347 kts 293°
2026-05-04 20:47 -22.62622 -46.90830 19192 ft 350 kts 303°
2026-05-04 20:48 -22.60891 -46.92714 19717 ft 361 kts 321°
2026-05-04 20:48 -22.58620 -46.93940 20269 ft 371 kts 337°
2026-05-04 20:48 -22.56116 -46.94802 20778 ft 376 kts 338°
2026-05-04 20:48 -22.53603 -46.95647 21284 ft 380 kts 338°
2026-05-04 20:49 -22.51093 -46.96474 21748 ft 384 kts 338°
2026-05-04 20:49 -22.48530 -46.97311 22243 ft 387 kts 338°
2026-05-04 20:49 -22.45932 -46.98154 22716 ft 391 kts 338°
2026-05-04 20:49 -22.43315 -46.99002 23186 ft 394 kts 338°
2026-05-04 20:50 -22.40674 -46.99856 23662 ft 398 kts 338°
2026-05-04 20:50 -22.38006 -47.00718 24063 ft 401 kts 338°
2026-05-04 20:50 -22.35322 -47.01584 24470 ft 404 kts 338°
2026-05-04 20:50 -22.32624 -47.02455 24882 ft 406 kts 338°
2026-05-04 20:51 -22.29902 -47.03333 25285 ft 409 kts 338°
2026-05-04 20:51 -22.27165 -47.04215 25680 ft 411 kts 338°
2026-05-04 20:51 -22.24418 -47.05100 26085 ft 414 kts 337°
2026-05-04 20:51 -22.21649 -47.05991 26468 ft 416 kts 337°
2026-05-04 20:52 -22.18859 -47.06889 26845 ft 419 kts 337°
2026-05-04 20:52 -22.16064 -47.07788 27230 ft 421 kts 337°
2026-05-04 20:52 -22.13242 -47.08696 27618 ft 424 kts 337°
2026-05-04 20:52 -22.10409 -47.09606 27994 ft 426 kts 336°
2026-05-04 20:53 -22.07565 -47.10520 28361 ft 429 kts 336°
2026-05-04 20:53 -22.04701 -47.11439 28719 ft 431 kts 336°
2026-05-04 20:53 -22.01820 -47.12364 29071 ft 433 kts 336°
2026-05-04 20:53 -21.98925 -47.13294 29421 ft 436 kts 336°
2026-05-04 20:54 -21.96005 -47.14230 29745 ft 438 kts 336°
2026-05-04 20:54 -21.93075 -47.15169 30099 ft 440 kts 336°
2026-05-04 20:54 -21.90133 -47.16112 30403 ft 443 kts 336°
2026-05-04 20:54 -21.87167 -47.17061 30684 ft 445 kts 336°
2026-05-04 20:55 -21.84234 -47.18001 30982 ft 446 kts 336°
2026-05-04 20:55 -21.81215 -47.18967 31263 ft 448 kts 336°
2026-05-04 20:55 -21.78181 -47.19806 31522 ft 457 kts 345°
2026-05-04 20:55 -21.75000 -47.20204 31836 ft 460 kts 346°
2026-05-04 20:56 -21.71816 -47.20630 32054 ft 462 kts 346°
2026-05-04 20:56 -21.68624 -47.21053 32333 ft 463 kts 346°
2026-05-04 20:56 -21.65455 -47.21471 32596 ft 465 kts 346°
2026-05-04 20:56 -21.62196 -47.21901 32858 ft 467 kts 346°
2026-05-04 20:57 -21.59002 -47.22321 33143 ft 469 kts 346°
2026-05-04 20:57 -21.55759 -47.22747 33410 ft 471 kts 346°
2026-05-04 20:57 -21.52498 -47.23175 33705 ft 472 kts 346°
2026-05-04 20:57 -21.49243 -47.23602 34040 ft 472 kts 346°
2026-05-04 20:58 -21.45987 -47.24029 34330 ft 471 kts 346°
2026-05-04 20:58 -21.42730 -47.24455 34622 ft 471 kts 346°
2026-05-04 20:58 -21.39436 -47.24888 34910 ft 470 kts 346°
2026-05-04 20:58 -21.36237 -47.25332 35198 ft 468 kts 344°
2026-05-04 20:59 -21.33037 -47.25878 35523 ft 466 kts 344°
2026-05-04 20:59 -21.29831 -47.26419 35801 ft 466 kts 344°
2026-05-04 20:59 -21.26625 -47.26955 36062 ft 466 kts 344°
2026-05-04 20:59 -21.23427 -47.27489 36319 ft 465 kts 343°
2026-05-04 21:00 -21.20228 -47.28021 36571 ft 465 kts 343°
2026-05-04 21:00 -21.17047 -47.28550 36804 ft 464 kts 343°
2026-05-04 21:00 -21.13848 -47.29081 37017 ft 464 kts 343°
2026-05-04 21:00 -21.10653 -47.29612 37094 ft 465 kts 343°
2026-05-04 21:01 -21.04281 -47.30669 37088 ft 462 kts 343°
2026-05-04 21:01 -20.97909 -47.31724 37093 ft 463 kts 343°
2026-05-04 21:02 -20.91540 -47.32779 37089 ft 463 kts 343°
2026-05-04 21:02 -20.85176 -47.33831 37087 ft 463 kts 343°
2026-05-04 21:03 -20.78801 -47.34885 37085 ft 463 kts 343°
2026-05-04 21:03 -20.72436 -47.35936 37089 ft 463 kts 343°
2026-05-04 21:04 -20.66058 -47.36988 37088 ft 464 kts 343°
2026-05-04 21:04 -20.59687 -47.38038 37080 ft 464 kts 344°
2026-05-04 21:05 -20.53273 -47.39005 37086 ft 465 kts 344°
2026-05-04 21:05 -20.46922 -47.39963 37087 ft 465 kts 344°
2026-05-04 21:06 -20.40473 -47.40936 37080 ft 465 kts 344°
2026-05-04 21:06 -20.34068 -47.41902 37083 ft 465 kts 344°
2026-05-04 21:07 -20.27707 -47.42860 37078 ft 465 kts 344°
2026-05-04 21:07 -20.21306 -47.43824 37073 ft 465 kts 345°
2026-05-04 21:08 -20.14901 -47.44788 37075 ft 465 kts 345°
2026-05-04 21:08 -20.08489 -47.45752 37069 ft 465 kts 344°
2026-05-04 21:09 -20.02066 -47.46716 37068 ft 466 kts 345°
2026-05-04 21:09 -19.95656 -47.47678 37070 ft 464 kts 345°
2026-05-04 21:10 -19.89251 -47.48639 37105 ft 466 kts 345°
2026-05-04 21:10 -19.82835 -47.49600 37087 ft 465 kts 345°
2026-05-04 21:11 -19.76427 -47.50559 37096 ft 466 kts 345°
2026-05-04 21:11 -19.70006 -47.51499 37093 ft 466 kts 345°
2026-05-04 21:12 -19.63580 -47.52440 37095 ft 466 kts 345°
2026-05-04 21:12 -19.57164 -47.53378 37101 ft 466 kts 345°
2026-05-04 21:13 -19.50738 -47.54317 37096 ft 466 kts 345°
2026-05-04 21:13 -19.44353 -47.55250 37105 ft 466 kts 345°
2026-05-04 21:14 -19.37933 -47.56187 37103 ft 466 kts 345°
2026-05-04 21:14 -19.31508 -47.57124 37098 ft 466 kts 345°
2026-05-04 21:15 -19.25091 -47.58059 37108 ft 466 kts 345°
2026-05-04 21:15 -19.18666 -47.58994 37107 ft 465 kts 345°
2026-05-04 21:16 -19.12242 -47.59929 37100 ft 466 kts 345°
2026-05-04 21:16 -19.05820 -47.60862 37102 ft 466 kts 345°
2026-05-04 21:17 -18.99387 -47.61766 37101 ft 466 kts 345°
2026-05-04 21:17 -18.92951 -47.62663 37102 ft 466 kts 345°
2026-05-04 21:18 -18.86514 -47.63559 37100 ft 467 kts 345°
2026-05-04 21:18 -18.80073 -47.64455 37096 ft 467 kts 346°
2026-05-04 21:19 -18.73630 -47.65351 37089 ft 467 kts 345°
2026-05-04 21:19 -18.67177 -47.66248 37084 ft 467 kts 345°
2026-05-04 21:20 -18.60737 -47.67150 37095 ft 467 kts 345°
2026-05-04 21:20 -18.54301 -47.68095 37085 ft 467 kts 345°
2026-05-04 21:21 -18.47869 -47.69035 37084 ft 467 kts 345°
2026-05-04 21:21 -18.41428 -47.69976 37087 ft 467 kts 345°
2026-05-04 21:22 -18.35031 -47.70910 37089 ft 467 kts 345°
2026-05-04 21:22 -18.28672 -47.72093 37088 ft 460 kts 338°
2026-05-04 21:23 -18.22427 -47.73667 37083 ft 462 kts 340°
2026-05-04 21:23 -18.16168 -47.75191 37085 ft 462 kts 340°
2026-05-04 21:24 -18.09905 -47.76706 37085 ft 462 kts 340°
2026-05-04 21:24 -18.03639 -47.78219 37084 ft 463 kts 340°
2026-05-04 21:25 -17.97358 -47.79733 37090 ft 463 kts 340°
2026-05-04 21:25 -17.91073 -47.81248 37087 ft 463 kts 340°
2026-05-04 21:26 -17.84797 -47.82759 37087 ft 463 kts 340°
2026-05-04 21:26 -17.78524 -47.84268 37085 ft 463 kts 340°
2026-05-04 21:27 -17.72236 -47.85780 37082 ft 463 kts 340°
2026-05-04 21:27 -17.69132 -47.86525 36820 ft 454 kts 340°
2026-05-04 21:27 -17.66059 -47.87263 36264 ft 452 kts 340°
2026-05-04 21:28 -17.62990 -47.87999 35716 ft 451 kts 340°
2026-05-04 21:28 -17.59949 -47.88730 35219 ft 448 kts 341°
2026-05-04 21:28 -17.56951 -47.89449 34743 ft 445 kts 341°
2026-05-04 21:28 -17.53932 -47.90174 34235 ft 451 kts 341°
2026-05-04 21:29 -17.50779 -47.90930 33610 ft 463 kts 342°
2026-05-04 21:29 -17.47668 -47.91676 33054 ft 467 kts 342°
2026-05-04 21:29 -17.44493 -47.92436 32563 ft 469 kts 342°
2026-05-04 21:29 -17.41320 -47.93196 32064 ft 467 kts 342°
2026-05-04 21:30 -17.38163 -47.93952 31545 ft 463 kts 342°
2026-05-04 21:30 -17.35038 -47.94700 31042 ft 459 kts 343°
2026-05-04 21:30 -17.31943 -47.95440 30543 ft 455 kts 343°
2026-05-04 21:30 -17.28866 -47.96176 30032 ft 451 kts 343°
2026-05-04 21:31 -17.22803 -47.97626 28988 ft 444 kts 343°
2026-05-04 21:31 -17.19809 -47.98342 28515 ft 441 kts 343°
2026-05-04 21:31 -17.16824 -47.99055 28059 ft 439 kts 344°
2026-05-04 21:32 -17.13850 -47.99765 27595 ft 436 kts 344°
2026-05-04 21:32 -17.10900 -48.00469 27142 ft 433 kts 344°
2026-05-04 21:32 -17.07972 -48.01168 26694 ft 431 kts 344°
2026-05-04 21:32 -17.05055 -48.01864 26248 ft 429 kts 344°
2026-05-04 21:33 -17.02158 -48.02555 25802 ft 426 kts 345°
2026-05-04 21:33 -16.99273 -48.03243 25363 ft 424 kts 345°
2026-05-04 21:33 -16.96401 -48.03927 24936 ft 422 kts 345°
2026-05-04 21:33 -16.93553 -48.04606 24510 ft 419 kts 345°
2026-05-04 21:34 -16.90715 -48.05282 24081 ft 417 kts 345°
2026-05-04 21:34 -16.87897 -48.05953 23670 ft 415 kts 345°
2026-05-04 21:34 -16.85083 -48.06623 23164 ft 412 kts 346°
2026-05-04 21:34 -16.83244 -48.07061 22870 ft 410 kts 346°
2026-05-04 21:35 -16.80467 -48.07722 22449 ft 407 kts 346°
2026-05-04 21:35 -16.77726 -48.08369 21994 ft 404 kts 346°
2026-05-04 21:35 -16.74956 -48.08995 21250 ft 410 kts 347°
2026-05-04 21:35 -16.71243 -48.09835 20449 ft 412 kts 347°
2026-05-04 21:36 -16.69349 -48.10264 20002 ft 414 kts 347°
2026-05-04 21:36 -16.66531 -48.10903 19344 ft 417 kts 347°
2026-05-04 21:36 -16.63714 -48.11541 18686 ft 409 kts 347°
2026-05-04 21:36 -16.60955 -48.12166 17979 ft 401 kts 347°
2026-05-04 21:37 -16.58260 -48.12776 17284 ft 393 kts 347°
2026-05-04 21:37 -16.55622 -48.13373 16655 ft 384 kts 347°
2026-05-04 21:37 -16.53030 -48.13960 16023 ft 377 kts 347°
2026-05-04 21:37 -16.50493 -48.14533 15432 ft 369 kts 347°
2026-05-04 21:38 -16.48006 -48.15096 14842 ft 363 kts 347°
2026-05-04 21:38 -16.45560 -48.15649 14259 ft 357 kts 348°
2026-05-04 21:38 -16.43161 -48.16191 13666 ft 351 kts 348°
2026-05-04 21:38 -16.40783 -48.16730 13031 ft 348 kts 348°
2026-05-04 21:39 -16.38408 -48.17267 12450 ft 351 kts 348°
2026-05-04 21:39 -16.36007 -48.17809 11866 ft 355 kts 347°
2026-05-04 21:39 -16.33589 -48.18356 11297 ft 358 kts 347°
2026-05-04 21:39 -16.31167 -48.18902 10717 ft 353 kts 347°
2026-05-04 21:40 -16.28823 -48.19432 10176 ft 344 kts 347°
2026-05-04 21:40 -16.26522 -48.19948 9811 ft 331 kts 347°
2026-05-04 21:40 -16.24326 -48.20439 9515 ft 315 kts 347°
2026-05-04 21:40 -16.22207 -48.20915 9250 ft 301 kts 348°
2026-05-04 21:41 -16.20235 -48.21357 9024 ft 286 kts 348°
2026-05-04 21:41 -16.18332 -48.21783 8796 ft 273 kts 348°
2026-05-04 21:41 -16.16854 -48.22115 8570 ft 264 kts 348°
2026-05-04 21:41 -16.15077 -48.22315 8288 ft 252 kts
2026-05-04 21:42 -16.13414 -48.21932 8089 ft 239 kts 14°
2026-05-04 21:42 -16.11830 -48.21543 7869 ft 228 kts 15°
2026-05-04 21:42 -16.10327 -48.21167 7674 ft 217 kts 15°
2026-05-04 21:42 -16.08873 -48.20800 7456 ft 214 kts 15°
2026-05-04 21:43 -16.07446 -48.20437 7243 ft 208 kts 15°
2026-05-04 21:43 -16.06054 -48.20082 7018 ft 203 kts 16°
2026-05-04 21:43 -16.04693 -48.19736 6783 ft 199 kts 16°
2026-05-04 21:43 -16.03386 -48.19401 6606 ft 193 kts 17°
2026-05-04 21:44 -16.02090 -48.19068 6424 ft 191 kts 17°
2026-05-04 21:44 -16.00788 -48.18738 6233 ft 190 kts 17°
2026-05-04 21:44 -15.99514 -48.18418 6047 ft 189 kts 14°
2026-05-04 21:44 -15.98209 -48.18378 5871 ft 191 kts
2026-05-04 21:45 -15.96885 -48.18460 5704 ft 191 kts
2026-05-04 21:45 -15.95548 -48.18546 5543 ft 189 kts 360°
2026-05-04 21:45 -15.94265 -48.18512 5383 ft 184 kts 21°
2026-05-04 21:45 -15.93235 -48.17801 5453 ft 179 kts 53°
2026-05-04 21:46 -15.92506 -48.16737 5573 ft 181 kts 58°
2026-05-04 21:46 -15.91817 -48.15650 5546 ft 181 kts 59°
2026-05-04 21:46 -15.91149 -48.14557 5489 ft 178 kts 60°
2026-05-04 21:46 -15.90494 -48.13460 5468 ft 178 kts 60°
2026-05-04 21:47 -15.89842 -48.12362 5443 ft 179 kts 61°
2026-05-04 21:47 -15.89287 -48.11219 5437 ft 176 kts 74°
2026-05-04 21:47 -15.89068 -48.09966 5468 ft 177 kts 86°
2026-05-04 21:47 -15.88996 -48.08700 5502 ft 176 kts 87°
2026-05-04 21:48 -15.88927 -48.07429 5477 ft 176 kts 86°
2026-05-04 21:48 -15.88845 -48.06155 5493 ft 177 kts 86°
2026-05-04 21:48 -15.88763 -48.04883 5479 ft 177 kts 86°
2026-05-04 21:48 -15.88683 -48.03635 5328 ft 167 kts 86°
2026-05-04 21:49 -15.88611 -48.02503 5168 ft 148 kts 87°
2026-05-04 21:49 -15.88545 -48.01454 4969 ft 142 kts 86°
2026-05-04 21:49 -15.88480 -48.00441 4789 ft 140 kts 86°
2026-05-04 21:49 -15.88415 -47.99427 4609 ft 141 kts 86°
2026-05-04 21:50 -15.88349 -47.98407 4408 ft 141 kts 86°
2026-05-04 21:50 -15.88283 -47.97389 4240 ft 142 kts 86°
2026-05-04 21:50 -15.88217 -47.96373 4026 ft 142 kts 87°
2026-05-04 21:50 -15.88135 -47.95336 3842 ft 137 kts 88°
2026-05-04 21:51 -15.88086 -47.94352 3621 ft 141 kts 87°
2026-05-04 21:51 -15.88020 -47.93402 3486 ft 132 kts 88°
2026-05-04 21:51 -15.87973 -47.92552 3475 ft 97 kts 87°
2026-05-04 21:51 -15.87932 -47.91978 3465 ft 52 kts 82°
2026-05-04 21:52 -15.87832 -47.91745 3457 ft 27 kts 59°
2026-05-04 21:52 -15.87800 -47.91692 3458 ft 0 kts 56°
2026-05-04 21:53 -15.87796 -47.91685 3455 ft 2 kts 56°
2026-05-04 21:53 -15.87777 -47.91655 3459 ft 9 kts 57°
2026-05-04 21:53 -15.87723 -47.91577 3458 ft 16 kts 41°
2026-05-04 21:53 -15.87602 -47.91560 3460 ft 19 kts 355°
2026-05-04 21:54 -15.87474 -47.91567 3470 ft 17 kts 356°
2026-05-04 21:54 -15.87368 -47.91574 3471 ft 13 kts 355°
2026-05-04 21:54 -15.87316 -47.91631 3475 ft 11 kts 275°
2026-05-04 21:54 -15.87317 -47.91698 3478 ft 9 kts 267°
2026-05-04 21:55 -15.87322 -47.91766 3479 ft 9 kts 266°
2026-05-04 21:55 -15.87324 -47.91819 3479 ft 0 kts 280°
2026-05-04 21:55 -15.87319 -47.91825 3479 ft 2 kts 310°
2026-05-04 21:55 -15.87298 -47.91840 3478 ft 4 kts 339°
2026-05-04 21:56 -15.87273 -47.91845 3478 ft 4 kts 354°
2026-05-04 21:56 -15.87261 -47.91845 3477 ft 0 kts 355°